Regional Weather Roundup
Issued by NWS

Home | Current Version | Previous Version | Text Only | Print | Product List | Glossary Off
Versions: 1 2 3 4 5 6 7 8 9 10 11 12 13 14 15 16 17 18 19 20 21 22 23 24 25 26 27 28 29 30 31 32 33 34 35 36 37 38 39 40 41 42 43 44 45 46 47 48 49 50

161
ASUS45 KCYS 291310
RWRWY

WYOMING REGIONAL WEATHER ROUNDUP
NATIONAL WEATHER SERVICE CHEYENNE WY
700 AM MDT FRI APR 29 2016

NOTE:  "FAIR" INDICATES FEW OR NO CLOUDS BELOW 12,000 FEET
WITH NO SIGNIFICANT WEATHER AND/OR OBSTRUCTIONS TO VISIBILITY.

WYZ001-291400-
YELLOWSTONE NATIONAL PARK

CITY           SKY/WX    TMP DP  RH WIND       PRES   REMARKS
LK YELLOWSTONE   N/A     24  20  84 CALM      29.95R
W YELLOWSTONE  NOT AVBL

$$
WYZ002>013-054>058-071-098>099-291400-
NORTHERN WYOMING

CITY           SKY/WX    TMP DP  RH WIND       PRES   REMARKS
JACKSON        CLOUDY    34  32  93 CALM      29.93S
CODY           CLOUDY    34  30  86 CALM      29.99R
GREYBULL       CLOUDY    41  29  62 SE8       30.01R
WORLAND        CLOUDY    38  31  76 S3        30.00R
SHERIDAN       CLOUDY    37  33  85 E7        30.02R WCI  32
BUFFALO          N/A    N/A N/A N/A MISG      30.04R
GILLETTE       CLOUDY    35  33  92 SE9       30.05R WCI  28
HULETT         CLOUDY    36  34  93 CALM      30.09R
NEWCASTLE      CLOUDY    34  34 100 S9        30.10S WCI  26

$$
WYZ014>020-022>026-101>103-291400-
CENTRAL WYOMING

CITY           SKY/WX    TMP DP  RH WIND       PRES   REMARKS
BIG PINEY      CLOUDY    30  25  81 CALM      29.94F
PINEDALE       CLOUDY    30  28  93 NW5       29.95S WCI  25
DUBOIS         CLOUDY    27  25  93 SE8       29.96S WCI  18
LANDER         CLOUDY    33  27  78 N5        29.97F WCI  29
RIVERTON       CLOUDY    33  28  81 NE7       29.99F WCI  27
CASPER         CLOUDY    33  30  88 E7        30.00F WCI  27
DOUGLAS        CLOUDY    34  32  92 SE9       30.03F WCI  27

$$
WYZ021-027>030-104>119-291400-
SOUTHERN WYOMING

CITY           SKY/WX    TMP DP  RH WIND       PRES   REMARKS
EVANSTON       CLOUDY    31  27  85 NE9       29.90S WCI  23
FORT BRIDGER   CLOUDY    30  30 100 E7        29.94R WCI  23
ROCK SPRINGS   CLOUDY    30  26  85 NE12      29.91S WCI  20
DIXON          FAIR      34  31  90 CALM      29.88F
RAWLINS        CLOUDY    31  28  89 NE13      29.92F WCI  21
SARATOGA       CLOUDY    30  30 100 N8        29.90S WCI  23
LARAMIE        CLOUDY    29  26  89 SE21      29.92F WCI  16
CHEYENNE       FOG       31  31 100 SE10      29.98F VSB<1/4 WCI  22
TORRINGTON     CLOUDY    34  34 100 E6        30.05S WCI  29
PINE BLUFFS    CLOUDY    32  32 100 E3        30.02F

$$




USA.gov is the U.S. government's official web portal to all federal, state and local government web resources and services.